Overview Statistics Trail Chart Weather Telemetry Raw packets
 

This is the latest recevied weather packets stored in our database for station/object W4SNA-3. If no packets are shown the sender has not sent any weather packets the latest 10 day(s).

<< 77 78 79 80 81 82 83 >>
Time Temp. Humidity Pressure Rain* Wind** Luminosity Snow
1788036942 23.89° C 81% 1022.8 hPa 0 mm - - -
1788036643 24.44° C 81% 1022.8 hPa 0 mm - - -
1788036343 24.44° C 81% 1022.8 hPa 0 mm - - -
1788036043 24.44° C 82% 1022.8 hPa 0 mm - - -
1788035742 24.44° C 83% 1022.8 hPa 0 mm - - -
1788035440 23.89° C 82% 1022.8 hPa 0 mm - - -
1788035142 23.89° C 81% 1022.9 hPa 0 mm - - -
1788034842 24.44° C 80% 1022.9 hPa 0 mm - - -
1788034349 24.44° C 79% 1023.1 hPa 0 mm - - -
1788034048 24.44° C 80% 1023 hPa 0 mm - - -
1788033749 24.44° C 80% 1023 hPa 0 mm - - -
1788033448 24.44° C 83% 1023 hPa 0 mm - - -
1788033148 23.89° C 87% 1023 hPa 0 mm - - -
1788032848 23.33° C 85% 1022.9 hPa 0 mm - - -
1788032548 23.33° C 85% 1023 hPa 0 mm - - -
1788032254 23.33° C 85% 1023.2 hPa 0 mm - - -
1788031948 23.33° C 84% 1023.3 hPa 0 mm - - -
1788031648 23.33° C 85% 1023.4 hPa 0 mm - - -
1788031348 23.33° C 84% 1023.6 hPa 0 mm - - -
1788031048 23.89° C 83% 1023.4 hPa 0 mm - - -
1788030748 23.89° C 83% 1023.6 hPa 0 mm - - -
1788030451 23.89° C 81% 1023.6 hPa 0 mm - - -
1788030148 23.89° C 82% 1023.6 hPa 0 mm - - -
1788029851 24.44° C 82% 1023.7 hPa 0 mm - - -
1788029548 24.44° C 81% 1023.8 hPa 0 mm - - -

* Rain latest hour (hover to see other rain measurements)
** Current wind speed in m/s (hover to see current wind gust speed)